Regional Weather Roundup
Issued by NWS

Home | Current Version | Previous Version | Text Only | Print | Product List | Glossary Off
Versions: 1 2 3 4 5 6 7 8 9 10 11 12 13 14 15 16 17 18 19 20 21 22 23 24 25 26 27 28 29 30 31 32 33 34 35 36 37 38 39 40 41 42 43 44 45 46 47 48 49 50

002
ASUS43 KLSX 301507
RWRMO

WEATHER SUMMARY FOR MISSOURI
NATIONAL WEATHER SERVICE SPRINGFIELD MO
1000 AM CDT FRI SEP 30 2016

NOTE: "FAIR" INDICATES FEW OR NO CLOUDS BELOW 12,000 FEET WITH NO
       SIGNIFICANT WEATHER AND/OR OBSTRUCTIONS TO VISIBILITY.
       CURRENT SKY AND/OR WEATHER CONDITIONS ARE NOT AVAILABLE FOR
       CHILLICOTHE AND FARMINGTON.

MOZ001>031-035>038-043-044-053-054-301600-
...NORTHERN AND WESTERN MISSOURI...

CITY           SKY/WX    TMP DP  RH WIND       PRES   REMARKS
KANSAS CTY INT SUNNY     61  52  72 N5        30.25S
KANSAS C DTWN  SUNNY     61  52  72 CALM      30.24F
LEE`S SUMMIT   SUNNY     61  53  75 VRB3      30.25S
ST JOSEPH      SUNNY     60  52  74 N7        30.27S
CHILLICOTHE      N/A     62  52  69 VRB3      30.25S
KIRKSVILLE     SUNNY     61  54  77 N8        30.21S

$$
MOZ066>068-077>081-088>096-101>105-301600-
...SOUTHWEST MISSOURI...

CITY           SKY/WX    TMP DP  RH WIND       PRES   REMARKS
SPRINGFIELD    SUNNY     62  53  72 N9        30.21R
JOPLIN         SUNNY     60  53  77 CALM      30.23F
BRANSON        SUNNY     61  52  72 NW3       30.21S

$$
MOZ032>034-039>042-045>050-055>058-069>072-301600-
...CENTRAL MISSOURI...

CITY           SKY/WX    TMP DP  RH WIND       PRES   REMARKS
COLUMBIA       SUNNY     65  55  70 NW9       30.17F
JEFFERSON CITY SUNNY     64  55  72 NW7       30.17S
ROLLA          SUNNY     62  56  80 N10       30.16R
SEDALIA        SUNNY     65  53  65 N9        30.23R
WHITEMAN AFB   SUNNY     62  56  82 N7        30.22R
OSAGE BEACH    SUNNY     63  55  75 VRB5      30.20R

$$
MOZ051-052-059>065-301600-
...EAST CENTRAL MISSOURI...

CITY           SKY/WX    TMP DP  RH WIND       PRES   REMARKS
ST LOUIS INTL  CLOUDY    64  56  75 N10       30.11F
SPIRIT OF STL  CLOUDY    64  58  80 N6        30.11S
ST CHARLES     CLOUDY    66  58  75 N14       30.11F

$$
MOZ072>076-082>087-097>100-106>115-301600-
...SOUTH CENTRAL AND SOUTHEAST MISSOURI...

CITY           SKY/WX    TMP DP  RH WIND       PRES   REMARKS
CAPE GIRARDEAU CLOUDY    63  57  81 N9        30.09R
FARMINGTON     CLOUDY    61  57  87 NW6       30.13R
POPLAR BLUFF   PTSUNNY   64  57  78 N9        30.10S
WEST PLAINS    CLOUDY    63  53  70 NW10      30.18R

$$



USA.gov is the U.S. government's official web portal to all federal, state and local government web resources and services.